[[{"header":{"parameterUnit":"m.s-1","parameterCategory":1,"la1":30.2991,"la2":30.254,"lo1":-89.0895,"lo2":-89.0444,"dy":0.0017,"dx":0.0017,"nx":28,"ny":28,"refTime":"2024-05-09T09:00:00:Z","depth":0,"parameterNumber":2,"parameterNumberName":"U-component_of_WINDS"},"data":[0,0,0,0,0,0,0,0,0,0,0,0,0,0,0,0,0,0,0,0,0,0,0,0,0,0,0,0,0,0,0,0,0,0,0,0,0,0,0,0,0,0,0,0,0,0,0,0,0,0,0,0,0,0,0,0,0,0,-2.8585,-2.8585,0,-2.8649,-2.865,-2.8651,-2.8587,-2.8584,-2.8582,-2.8579,-2.8642,-2.8646,-2.865,0,0,0,0,0,0,0,0,0,0,0,0,0,-2.8402,-2.8405,-2.8584,-2.8585,-2.8586,-2.8649,-2.865,-2.8651,-2.8587,-2.8584,-2.8581,-2.8578,-2.8641,-2.8646,-2.865,0,0,0,0,0,0,0,0,0,0,0,0,0,-2.8475,-2.8407,-2.8584,-2.8562,-2.8561,-2.8649,-2.865,-2.8651,-2.8588,-2.8584,-2.858,-2.8577,-2.8639,-2.8645,-2.8651,-2.8764,0,0,-2.8669,-2.8672,0,0,0,0,0,0,0,0,-2.8471,-2.8482,-2.8565,-2.8564,-2.8562,-2.8606,-2.8609,-2.8689,-2.8589,-2.8578,-2.8579,-2.8575,-2.8633,-2.8639,-2.866,-2.8766,-2.8769,-2.867,-2.8674,-2.8676,-2.8678,0,0,0,0,0,0,0,-2.8466,-2.8479,-2.861,-2.8566,-2.8565,-2.8547,-2.8554,-2.8623,-2.8625,-2.8578,-2.8574,-2.8582,-2.8632,-2.8654,-2.8661,-2.877,-2.867,-2.8675,-2.8679,-2.8681,-2.8972,-2.8976,0,0,0,0,0,0,-2.8464,-2.8475,-2.8608,-2.8612,-2.8507,-2.8554,-2.8561,-2.8596,-2.8625,-2.8625,-2.8586,-2.8579,-2.8646,-2.8654,-2.8663,-2.8796,-2.8676,-2.8682,-2.8685,-2.8968,-2.8973,-2.8977,0,0,0,0,0,0,-2.846,-2.8476,-2.8605,-2.8542,-2.8557,-2.8561,-2.8601,-2.8599,-2.8621,-2.863,-2.863,-2.8608,-2.8643,-2.8654,-2.8739,-2.8798,-2.8685,-2.869,-2.8963,-2.897,-2.8975,-2.9065,0,0,0,0,0,0,-2.8455,-2.8476,-2.8519,-2.8544,-2.8561,-2.8682,-2.8604,-2.8603,-2.8632,-2.8625,-2.8651,-2.8652,-2.8641,-2.8731,-2.8745,-2.8804,-2.8695,-2.8958,-2.8966,-2.8973,-2.9057,-2.9074,-2.9088,0,0,0,0,0,-2.8449,-2.8541,-2.8522,-2.8538,-2.8616,-2.8686,-2.8696,-2.8682,-2.8637,-2.8681,-2.8686,-2.8651,-2.8789,-2.874,-2.8756,-2.8817,-2.8954,-2.8964,-2.8973,-2.905,-2.907,-2.9087,0,0,0,0,0,0,-2.8522,-2.8544,-2.8523,-2.8626,-2.8655,-2.8675,-2.8729,-2.8704,-2.8745,-2.8735,-2.8715,-2.8722,-2.8812,-2.8823,-2.8768,-2.8927,-2.8864,-2.8877,-2.8917,-2.8937,-2.8952,-2.8948,-2.87,0,0,0,0,0,-2.855,-2.8606,-2.8622,-2.8711,-2.8727,-2.8726,-2.8756,-2.8743,-2.8771,-2.8783,-2.8794,-2.8822,-2.8871,-2.8904,-2.895,-2.9058,-2.9062,-2.9108,-2.9123,-2.9136,-2.9147,-2.9205,-2.9225,-2.9008,-2.9008,-2.9008,0,0,-2.8609,-2.8628,-2.8664,-2.8726,-2.8747,-2.8805,-2.8737,-2.88,-2.8842,-2.8792,-2.8873,-2.8883,-2.8912,-2.9009,-2.9053,-2.9021,-2.9208,-2.9148,-2.9158,-2.9162,-2.9216,-2.9237,-2.9255,-2.9014,-2.9013,-2.9012,0,0,-2.8745,-2.8766,-2.8842,-2.8865,-2.8898,-2.8896,-2.8915,-2.8939,-2.8944,-2.9026,-2.8989,-2.9038,-2.9124,-2.9147,-2.9169,-2.9315,-2.9284,-2.933,-2.9411,-2.9467,-2.9484,-2.9499,-2.9551,-2.957,-2.9341,-2.9341,-2.9341,0,-2.8814,-2.8901,-2.8885,-2.8952,-2.898,-2.8938,-2.9015,-2.9037,-2.9083,-2.9103,-2.9067,-2.9174,-2.919,-2.9292,-2.9328,-2.9347,-2.9367,-2.9327,-2.9483,-2.9498,-2.9512,-2.9561,-2.9581,-2.9347,-2.9346,-2.9346,-2.9345,0,-2.8983,-2.9044,-2.9102,-2.9149,-2.9183,-2.9255,-2.9249,-2.9285,-2.9269,-2.9271,-2.9354,-2.9373,-2.9422,-2.9445,-2.9429,-2.9545,-2.9524,-2.9486,-2.9422,-2.9538,-2.9584,-2.9603,-2.9355,-2.9353,-2.9351,-2.935,0,0,-2.9168,-2.9206,-2.9227,-2.9248,-2.9281,-2.9327,-2.9396,-2.9445,-2.9477,-2.951,-2.9567,-2.964,-2.9605,-2.9631,-2.9617,-2.9667,-2.9781,-2.9622,-2.9623,-2.9652,-2.9909,-2.9938,-2.996,-2.976,-2.9764,-2.9767,-2.9907,0,-2.9306,-2.9428,-2.9416,-2.9531,-2.9587,-2.9548,-2.9608,-2.9634,-2.9638,-2.9684,-2.9687,-2.974,-2.969,-2.9705,-2.9752,-2.9757,-2.9832,-2.9747,-2.9813,-2.9815,-2.9807,-2.9984,-3.0015,-3.0146,-2.9925,-2.9928,-2.993,0,-2.9483,-2.9524,-2.9646,-2.9671,-2.9693,-2.9748,-2.9792,-2.9838,-2.9866,-2.9865,-2.9894,-2.9872,-2.994,-2.9874,-2.9968,-2.991,-2.9936,-2.9942,-2.9947,-2.9953,-2.988,-2.9995,-3.0188,-3.0208,-2.9958,-2.9956,-2.9954,0,-2.9607,-2.9692,-2.9776,-2.9794,-2.9825,-2.9865,-2.9879,-2.9904,-2.9934,-2.9972,-2.9992,-3.0036,-3.0061,-3.0096,-3.0086,-3.0039,-3.0181,-3.0115,-3.0182,-3.0182,-3.0214,-3.0213,-3.0414,-3.023,-3.023,-3.023,-3.0229,0,-2.9763,-2.9839,-2.9832,-2.9883,-2.9967,-2.9951,-3.0034,-3.0043,-3.0066,-3.0117,-3.0085,-3.0134,-3.0117,-3.0165,-3.0157,-3.0236,-3.0247,-3.0247,-3.0244,-3.0251,-3.0251,-3.0268,-3.0259,-3.0235,-3.0234,-3.0233,-3.0232,0,-2.9915,-2.9913,-3.0002,-3.0024,-3.0032,-3.0092,-3.0111,-3.0159,-3.016,-3.0226,-3.024,-3.0241,-3.0296,-3.0289,-3.0349,-3.0344,-3.0442,-3.0427,-3.0433,-3.043,-3.0498,-3.0491,-3.0718,-3.0746,-3.0544,-3.0546,-3.0547,0,-3.0015,-3.0073,-3.0102,-3.0135,-3.0152,-3.0206,-3.0237,-3.0224,-3.0257,-3.0294,-3.0337,-3.0389,-3.043,-3.0519,-3.0524,-3.057,-3.0557,-3.0633,-3.0563,-3.0568,-3.0558,-3.0555,-3.0561,-3.0647,-3.0649,-3.0651,-3.0652,0,-3.0192,-3.0189,-3.0236,-3.0283,-3.0322,-3.0358,-3.0391,-3.0419,-3.0408,-3.0448,-3.0504,-3.0536,-3.0598,-3.0649,-3.0693,-3.0705,-3.0678,-3.0674,-3.0692,-3.0699,-3.07,-3.0701,-3.0471,-3.0669,-3.0667,-3.0666,-3.0665,-3.0665,-3.0322,-3.0371,-3.04,-3.0453,-3.0477,-3.0508,-3.0555,-3.0562,-3.0609,-3.066,-3.0648,-3.0711,-3.0737,-3.0793,-3.081,-3.0859,-3.0831,-3.0857,-3.0863,-3.087,-3.0878,-3.0693,-3.0866,-3.0866,-3.0865,-3.0865,-3.0865,0,-3.0498,-3.0514,-3.0564,-3.0611,-3.0653,-3.0624,-3.0659,-3.0695,-3.0752,-3.0779,-3.0821,-3.0885,-3.0935,-3.0944,-3.0992,-3.1028,-3.1017,-3.1041,-3.1039,-3.1042,-3.0901,-3.0881,-3.105,-3.105,-3.105,-3.105,-3.105,-3.105,-3.0595,-3.0677,-3.0677,-3.0771,-3.0786,-3.0849,-3.0871,-3.09,-3.0922,-3.0996,-3.1037,-3.1044,-3.1064,-3.1112,-3.1156,-3.1157,-3.1176,-3.1206,-3.1203,-3.1071,-3.1052,-3.1034,-3.1016,-3.1211,-3.1211,-3.134,-3.1341,-3.1342]},{"header":{"parameterUnit":"m.s-1","parameterCategory":1,"la1":30.2991,"la2":30.254,"lo1":-89.0895,"lo2":-89.0444,"dy":0.0017,"dx":0.0017,"nx":28,"ny":28,"refTime":"2024-05-09T09:00:00:Z","depth":0,"parameterNumber":3,"parameterNumberName":"V-component_of_WINDS"},"data":[0,0,0,0,0,0,0,0,0,0,0,0,0,0,0,0,0,0,0,0,0,0,0,0,0,0,0,0,0,0,0,0,0,0,0,0,0,0,0,0,0,0,0,0,0,0,0,0,0,0,0,0,0,0,0,0,0,0,-6.7605,-6.7607,0,-6.7727,-6.7729,-6.773,-6.7659,-6.7655,-6.7652,-6.7649,-6.7767,-6.7773,-6.7779,0,0,0,0,0,0,0,0,0,0,0,0,0,-6.7303,-6.7309,-6.7605,-6.7607,-6.7608,-6.7727,-6.7729,-6.773,-6.7659,-6.7655,-6.7651,-6.7647,-6.7765,-6.7772,-6.778,0,0,0,0,0,0,0,0,0,0,0,0,0,-6.743,-6.7311,-6.7605,-6.7587,-6.7587,-6.7727,-6.7729,-6.7731,-6.766,-6.7655,-6.765,-6.7645,-6.7762,-6.7771,-6.7781,-6.7942,0,0,-6.781,-6.7814,0,0,0,0,0,0,0,0,-6.7423,-6.7442,-6.7588,-6.7589,-6.7589,-6.7673,-6.7665,-6.7801,-6.7662,-6.7632,-6.7649,-6.7643,-6.7739,-6.775,-6.7784,-6.7948,-6.7953,-6.7811,-6.7816,-6.782,-6.7823,0,0,0,0,0,0,0,-6.7415,-6.7436,-6.7653,-6.7591,-6.7591,-6.7571,-6.7583,-6.7691,-6.7713,-6.7634,-6.763,-6.7645,-6.7738,-6.7775,-6.7786,-6.7955,-6.781,-6.7819,-6.7825,-6.7828,-6.8255,-6.826,0,0,0,0,0,0,-6.7408,-6.7429,-6.7649,-6.7657,-6.7492,-6.758,-6.7594,-6.7651,-6.7711,-6.7716,-6.765,-6.7642,-6.7761,-6.7775,-6.779,-6.7983,-6.782,-6.7829,-6.7835,-6.8249,-6.8256,-6.8262,0,0,0,0,0,0,-6.7402,-6.7428,-6.7644,-6.7542,-6.7568,-6.7591,-6.7655,-6.7656,-6.7693,-6.7723,-6.7726,-6.7684,-6.7758,-6.7777,-6.7905,-6.7986,-6.7834,-6.7842,-6.8243,-6.8252,-6.8259,-6.8369,0,0,0,0,0,0,-6.7393,-6.7427,-6.749,-6.7544,-6.7574,-6.776,-6.766,-6.7662,-6.771,-6.7701,-6.7756,-6.776,-6.7755,-6.7891,-6.7915,-6.7996,-6.785,-6.8236,-6.8247,-6.8257,-6.8359,-6.8381,-6.8399,0,0,0,0,0,-6.7383,-6.7515,-6.7494,-6.7521,-6.7654,-6.7765,-6.7782,-6.7775,-6.7717,-6.778,-6.7799,-6.7758,-6.7973,-6.7905,-6.7931,-6.8016,-6.8231,-6.8244,-6.8256,-6.835,-6.8376,-6.8399,0,0,0,0,0,0,-6.7468,-6.7522,-6.7499,-6.7653,-6.7705,-6.7753,-6.7832,-6.7804,-6.7872,-6.786,-6.7847,-6.786,-6.7994,-6.8018,-6.7941,-6.8175,-6.8092,-6.8111,-6.8155,-6.8181,-6.82,-6.8192,-6.7857,0,0,0,0,0,-6.7505,-6.7593,-6.7634,-6.7766,-6.7794,-6.7809,-6.7857,-6.7847,-6.79,-6.7921,-6.7949,-6.8,-6.8079,-6.8131,-6.8205,-6.8362,-6.8371,-6.8433,-6.8453,-6.847,-6.8485,-6.8569,-6.8596,-6.8304,-6.8304,-6.8304,0,0,-6.7582,-6.7622,-6.7678,-6.7784,-6.7824,-6.7913,-6.7828,-6.7925,-6.7991,-6.7935,-6.8059,-6.8081,-6.8136,-6.828,-6.8344,-6.8303,-6.8568,-6.8486,-6.8499,-6.8506,-6.8584,-6.8612,-6.8637,-6.8313,-6.8311,-6.831,0,0,-6.7767,-6.7807,-6.7921,-6.7963,-6.8024,-6.8033,-6.806,-6.8113,-6.8126,-6.825,-6.821,-6.8286,-6.8422,-6.8463,-6.8502,-6.8702,-6.8667,-6.8726,-6.8832,-6.8914,-6.8936,-6.8957,-6.9027,-6.9053,-6.8742,-6.8742,-6.8743,0,-6.7854,-6.7989,-6.7982,-6.8084,-6.8131,-6.8087,-6.82,-6.824,-6.8322,-6.8354,-6.8308,-6.8478,-6.8512,-6.8663,-6.8712,-6.8745,-6.8774,-6.872,-6.8934,-6.8954,-6.8973,-6.904,-6.9067,-6.8749,-6.8748,-6.8748,-6.8747,0,-6.8092,-6.8186,-6.827,-6.8353,-6.8409,-6.8516,-6.8523,-6.858,-6.8566,-6.8579,-6.8705,-6.8744,-6.8825,-6.886,-6.8847,-6.901,-6.8983,-6.8936,-6.8853,-6.9008,-6.9071,-6.9096,-6.8759,-6.8757,-6.8754,-6.8753,0,0,-6.8335,-6.8413,-6.8444,-6.848,-6.8544,-6.8616,-6.8719,-6.8801,-6.885,-6.8907,-6.8992,-6.9109,-6.9066,-6.9109,-6.9099,-6.9171,-6.9325,-6.9115,-6.9116,-6.9152,-6.9506,-6.9541,-6.9571,-6.9302,-6.9307,-6.9311,-6.9501,0,-6.8524,-6.8709,-6.8705,-6.8875,-6.8961,-6.892,-6.901,-6.9057,-6.9072,-6.9145,-6.9159,-6.9242,-6.918,-6.9206,-6.9275,-6.9292,-6.9396,-6.9278,-6.9379,-6.9383,-6.9367,-6.9604,-6.9641,-6.9818,-6.9526,-6.953,-6.9533,0,-6.8769,-6.8837,-6.9017,-6.9068,-6.9104,-6.9185,-6.9259,-6.933,-6.9382,-6.9387,-6.9437,-6.9415,-6.9518,-6.9432,-6.9572,-6.9492,-6.9533,-6.9548,-6.9554,-6.9563,-6.9467,-6.9618,-6.9875,-6.9901,-6.9571,-6.9568,-6.9565,0,-6.8927,-6.9063,-6.9188,-6.9221,-6.9284,-6.9342,-6.937,-6.9418,-6.9467,-6.953,-6.9561,-6.9635,-6.9675,-6.9731,-6.9729,-6.9667,-6.9871,-6.9785,-6.9876,-6.9876,-6.9921,-6.9918,-7.0187,-6.9948,-6.9948,-6.9947,-6.9947,0,-6.9138,-6.925,-6.926,-6.9337,-6.9459,-6.9453,-6.9573,-6.9596,-6.9638,-6.9716,-6.9684,-6.9758,-6.9751,-6.9825,-6.9823,-6.9939,-6.9957,-6.9962,-6.9961,-6.9965,-6.9965,-6.9992,-6.9979,-6.9954,-6.9953,-6.9951,-6.995,0,-6.9336,-6.9348,-6.9481,-6.953,-6.9545,-6.9633,-6.9673,-6.9745,-6.9757,-6.9856,-6.9879,-6.9896,-6.9981,-6.9985,-7.0082,-7.0081,-7.0221,-7.0206,-7.0204,-7.0201,-7.0292,-7.0283,-7.0587,-7.0626,-7.0363,-7.0365,-7.0367,0,-6.947,-6.9555,-6.9613,-6.9665,-6.9698,-6.978,-6.9831,-6.9826,-6.9879,-6.9945,-7.0008,-7.0091,-7.0156,-7.0293,-7.0313,-7.0386,-7.0372,-7.0473,-7.0383,-7.0384,-7.0372,-7.0367,-7.0375,-7.0491,-7.0494,-7.0496,-7.0498,0,-6.9706,-6.9708,-6.9783,-6.986,-6.9921,-6.9981,-7.0037,-7.008,-7.0082,-7.0143,-7.023,-7.0281,-7.0381,-7.0462,-7.0534,-7.0559,-7.0529,-7.0527,-7.0552,-7.0557,-7.0553,-7.0555,-7.0252,-7.052,-7.0518,-7.0516,-7.0515,-7.0514,-6.9875,-6.9948,-7.0002,-7.0086,-7.0127,-7.018,-7.025,-7.0271,-7.0345,-7.0427,-7.0419,-7.0516,-7.0564,-7.0657,-7.0689,-7.0763,-7.0728,-7.0764,-7.0773,-7.0782,-7.0791,-7.0542,-7.0776,-7.0775,-7.0775,-7.0774,-7.0774,0,-7.0109,-7.0141,-7.0219,-7.0299,-7.0365,-7.0332,-7.0392,-7.0448,-7.0535,-7.0583,-7.0649,-7.0749,-7.0827,-7.0853,-7.0929,-7.0983,-7.097,-7.1002,-7.0998,-7.1004,-7.0819,-7.079,-7.1011,-7.1011,-7.1011,-7.1011,-7.1011,-7.1011,-7.0238,-7.0361,-7.0368,-7.051,-7.054,-7.0637,-7.0674,-7.0721,-7.076,-7.0874,-7.094,-7.0957,-7.0996,-7.1074,-7.1144,-7.1149,-7.1178,-7.1216,-7.1215,-7.1041,-7.1017,-7.0995,-7.0967,-7.1222,-7.1223,-7.1394,-7.1396,-7.1397]}]]